| time (UTC) | temp F | wind direction | speed knots | gust knots | rain 1hr in | rain 24hr in | rain mn in | humidity % | barometer mb |
| 20260506150057 | 59 | 54 | 0.9 | 7.0 | 0.00 | 0.00 | 0.00 | 58 | 1017.7 |
| 20260506144600 | 58 | 26 | 0.9 | 5.2 | 0.00 | 0.00 | 0.00 | 60 | 1017.2 |
| 20260506143055 | 57 | 344 | 0.9 | 6.1 | 0.00 | 0.00 | 0.00 | 63 | 1017.6 |
| 20260506141558 | 55 | 0 | 0.9 | 6.1 | 0.00 | 0.00 | 0.00 | 66 | 1017.7 |
| 20260506134558 | 52 | 9 | 1.7 | 7.0 | 0.00 | 0.00 | 0.00 | 72 | 1017.5 |
| 20260506133102 | 51 | 46 | 0.9 | 6.1 | 0.00 | 0.00 | 0.00 | 75 | 1017.9 |
| 20260506131557 | 50 | 65 | 0.0 | 5.2 | 0.00 | 0.00 | 0.00 | 76 | 1017.5 |
| 20260506124559 | 49 | 42 | 0.9 | 5.2 | 0.00 | 0.00 | 0.00 | 77 | 1017.4 |
| 20260506123056 | 49 | 0 | 0.0 | 3.5 | 0.00 | 0.00 | 0.00 | 78 | 1017.4 |
| 20260506121605 | 48 | 0 | 0.9 | 4.3 | 0.00 | 0.00 | 0.00 | 80 | 1017.2 |
| 20260506120110 | 48 | 0 | 0.0 | 3.5 | 0.00 | 0.00 | 0.00 | 81 | 1017.1 |
| 20260506114619 | 48 | 0 | 0.0 | 4.3 | 0.00 | 0.00 | 0.00 | 83 | 1017.2 |
| 20260506113057 | 48 | 0 | 0.0 | 2.6 | 0.00 | 0.00 | 0.00 | 84 | 1016.9 |
| 20260506111557 | 48 | 13 | 0.0 | 4.3 | 0.00 | 0.00 | 0.00 | 85 | 1017.0 |
| 20260506110058 | 48 | 0 | 0.0 | 5.2 | 0.00 | 0.00 | 0.00 | 85 | 1017.0 |
| 20260506104558 | 48 | 347 | 0.0 | 3.5 | 0.00 | 0.00 | 0.00 | 85 | 1017.0 |
| 20260506103057 | 47 | 9 | 0.0 | 3.5 | 0.00 | 0.00 | 0.00 | 84 | 1016.5 |
| 20260506101557 | 47 | 5 | 0.9 | 3.5 | 0.00 | 0.00 | 0.00 | 84 | 1016.0 |
| 20260506100056 | 47 | 302 | 0.0 | 2.6 | 0.00 | 0.00 | 0.00 | 84 | 1015.9 |
| 20260506094557 | 47 | 0 | 0.9 | 3.5 | 0.00 | 0.00 | 0.00 | 84 | 1015.8 |
| 20260506093112 | 47 | 17 | 0.0 | 5.2 | 0.00 | 0.00 | 0.00 | 83 | 1015.6 |
| 20260506091600 | 47 | 0 | 0.0 | 3.5 | 0.00 | 0.00 | 0.00 | 83 | 1015.7 |
| 20260506090128 | 47 | 31 | 0.0 | 3.5 | 0.00 | 0.00 | 0.00 | 83 | 1015.1 |
| 20260506084604 | 47 | 303 | 0.9 | 3.5 | 0.00 | 0.00 | 0.00 | 83 | 1015.0 |
| 20260506083107 | 47 | 39 | 0.0 | 2.6 | 0.00 | 0.00 | 0.00 | 83 | 1014.5 |
| 20260506081559 | 47 | 0 | 0.0 | 3.5 | 0.00 | 0.00 | 0.00 | 83 | 1014.3 |
| 20260506080111 | 48 | 0 | 0.9 | 5.2 | 0.00 | 0.00 | 0.00 | 82 | 1014.0 |
| 20260506073111 | 48 | 321 | 0.9 | 5.2 | 0.00 | 0.00 | 0.00 | 81 | 1013.5 |
| 20260506071600 | 48 | 5 | 0.0 | 4.3 | 0.00 | 0.00 | 0.00 | 81 | 1014.0 |
| 20260506061604 | 48 | 0 | 0.9 | 4.3 | 0.00 | 0.00 | 0.00 | 80 | 1013.7 |
| 20260506050103 | 49 | 15 | 0.9 | 4.3 | 0.00 | 0.00 | 0.00 | 78 | 1014.2 |
| 20260506044608 | 48 | 27 | 1.7 | 6.1 | 0.00 | 0.00 | 0.00 | 77 | 1014.3 |
| 20260506043058 | 49 | 0 | 0.9 | 6.1 | 0.00 | 0.00 | 0.00 | 78 | 1014.1 |
| 20260506041609 | 49 | 315 | 1.7 | 7.0 | 0.00 | 0.00 | 0.00 | 77 | 1014.4 |
| 20260506040101 | 49 | 11 | 0.9 | 7.0 | 0.00 | 0.00 | 0.00 | 77 | 1014.2 |
| 20260506034601 | 49 | 0 | 0.9 | 5.2 | 0.00 | 0.00 | 0.00 | 75 | 1014.4 |
| 20260506033057 | 49 | 17 | 0.9 | 6.1 | 0.00 | 0.00 | 0.00 | 74 | 1014.0 |
| 20260506031559 | 50 | 19 | 0.9 | 4.3 | 0.00 | 0.00 | 0.00 | 71 | 1013.6 |
| 20260506030108 | 50 | 23 | 0.0 | 4.3 | 0.00 | 0.00 | 0.00 | 73 | 1013.4 |
| 20260506024613 | 50 | 13 | 0.9 | 4.3 | 0.00 | 0.00 | 0.00 | 74 | 1012.9 |
| 20260506023100 | 50 | 0 | 0.0 | 3.5 | 0.00 | 0.00 | 0.00 | 76 | 1012.8 |
| 20260506021558 | 50 | 5 | 0.9 | 5.2 | 0.00 | 0.00 | 0.00 | 74 | 1012.0 |
| 20260506020123 | 50 | 334 | 1.7 | 4.3 | 0.00 | 0.00 | 0.00 | 72 | 1012.1 |
| 20260506014558 | 50 | 49 | 0.9 | 7.0 | 0.00 | 0.00 | 0.00 | 72 | 1012.3 |
| 20260506013055 | 50 | 73 | 0.9 | 8.7 | 0.00 | 0.00 | 0.00 | 72 | 1011.8 |
| 20260506011601 | 51 | 290 | 1.7 | 7.0 | 0.00 | 0.00 | 0.00 | 72 | 1011.5 |
| 20260506010103 | 51 | 70 | 1.7 | 8.7 | 0.00 | 0.00 | 0.00 | 72 | 1011.3 |
| 20260506004558 | 51 | 320 | 2.6 | 9.6 | 0.00 | 0.00 | 0.00 | 72 | 1011.0 |
| 20260506003056 | 51 | 24 | 1.7 | 8.7 | 0.00 | 0.00 | 0.00 | 72 | 1010.8 |
| 20260506001606 | 51 | 32 | 1.7 | 8.7 | 0.00 | 0.00 | 0.00 | 73 | 1010.8 |
| 20260506000125 | 51 | 0 | 1.7 | 7.8 | 0.00 | 0.00 | 0.00 | 72 | 1010.9 |
| 20260505234615 | 51 | 137 | 1.7 | 8.7 | 0.00 | 0.00 | 0.00 | 72 | 1011.0 |
| 20260505233058 | 51 | 51 | 1.7 | 9.6 | 0.00 | 0.00 | 0.00 | 74 | 1010.9 |
| 20260505231601 | 51 | 52 | 0.9 | 7.8 | 0.00 | 0.00 | 0.00 | 75 | 1010.8 |
| 20260505230104 | 52 | 46 | 1.7 | 7.8 | 0.00 | 0.00 | 0.00 | 73 | 1010.5 |
| 20260505224613 | 52 | 58 | 1.7 | 7.0 | 0.00 | 0.00 | 0.00 | 72 | 1010.3 |
| 20260505223105 | 52 | 317 | 2.6 | 11.3 | 0.00 | 0.00 | 0.00 | 71 | 1010.2 |
| 20260505221601 | 52 | 159 | 2.6 | 7.8 | 0.00 | 0.00 | 0.00 | 69 | 1010.1 |
| 20260505220107 | 53 | 36 | 1.7 | 8.7 | 0.00 | 0.00 | 0.00 | 70 | 1010.1 |
| 20260505214605 | 53 | 65 | 2.6 | 7.8 | 0.00 | 0.00 | 0.00 | 69 | 1009.7 |
| 20260505213056 | 53 | 23 | 1.7 | 9.6 | 0.00 | 0.00 | 0.00 | 70 | 1009.8 |
| 20260505211631 | 53 | 30 | 1.7 | 12.2 | 0.00 | 0.00 | 0.00 | 69 | 1009.9 |
| 20260505210100 | 54 | 17 | 2.6 | 7.8 | 0.00 | 0.00 | 0.00 | 69 | 1009.8 |
| 20260505204605 | 54 | 23 | 3.5 | 8.7 | 0.00 | 0.00 | 0.00 | 68 | 1009.5 |
| 20260505203058 | 54 | 73 | 2.6 | 10.4 | 0.00 | 0.00 | 0.00 | 67 | 1009.9 |
| 20260505201559 | 54 | 19 | 2.6 | 9.6 | 0.00 | 0.00 | 0.00 | 67 | 1009.6 |
| 20260505200059 | 55 | 360 | 1.7 | 7.0 | 0.00 | 0.00 | 0.00 | 68 | 1009.5 |
| 20260505194558 | 55 | 63 | 0.9 | 7.8 | 0.00 | 0.00 | 0.00 | 68 | 1009.8 |
| 20260505193056 | 54 | 332 | 2.6 | 11.3 | 0.00 | 0.00 | 0.00 | 68 | 1009.6 |
| 20260505191604 | 55 | 347 | 2.6 | 8.7 | 0.00 | 0.00 | 0.00 | 67 | 1009.4 |
| 20260505190114 | 55 | 46 | 1.7 | 7.8 | 0.00 | 0.00 | 0.00 | 67 | 1009.2 |
| 20260505184557 | 55 | 327 | 1.7 | 7.8 | 0.00 | 0.00 | 0.00 | 66 | 1009.3 |
| 20260505183059 | 54 | 299 | 2.6 | 11.3 | 0.00 | 0.00 | 0.00 | 68 | 1009.0 |
| 20260505181640 | 55 | 0 | 2.6 | 11.3 | 0.00 | 0.00 | 0.00 | 69 | 1008.8 |
| 20260505180105 | 55 | 5 | 2.6 | 8.7 | 0.00 | 0.00 | 0.00 | 70 | 1008.8 |
| 20260505174556 | 55 | 360 | 2.6 | 11.3 | 0.00 | 0.00 | 0.00 | 69 | 1008.6 |
| 20260505173058 | 55 | 296 | 1.7 | 8.7 | 0.00 | 0.00 | 0.00 | 71 | 1008.5 |
| 20260505171603 | 55 | 306 | 0.9 | 9.6 | 0.00 | 0.00 | 0.00 | 72 | 1008.4 |
| 20260505170057 | 55 | 15 | 2.6 | 8.7 | 0.00 | 0.00 | 0.00 | 76 | 1008.1 |
| 20260505164558 | 55 | 360 | 2.6 | 9.6 | 0.00 | 0.00 | 0.00 | 78 | 1008.0 |
| 20260505163058 | 55 | 61 | 0.9 | 7.8 | 0.00 | 0.00 | 0.00 | 80 | 1007.8 |
| 20260505161557 | 55 | 40 | 1.7 | 9.6 | 0.00 | 0.00 | 0.00 | 80 | 1007.4 |
| 20260505153103 | 54 | 50 | 2.6 | 7.8 | 0.00 | 0.00 | 0.00 | 83 | 1007.2 |
| 20260505151602 | 55 | 64 | 0.9 | 7.8 | 0.00 | 0.00 | 0.00 | 83 | 1007.0 |